This is the latest recevied weather packets stored in our database for station/object SA7AHC. If no packets are shown the sender has not sent any weather packets the latest 10 day(s).
| Time | Temp. | Humidity | Pressure | Rain* | Wind** | Luminosity | Snow |
|---|---|---|---|---|---|---|---|
| 1777627774 | 19.44° C | 35% | 1027.3 hPa | 0 mm | - | 703 W/m² | - |
| 1777627176 | 19.44° C | 36% | 1027.4 hPa | 0 mm | - | 689 W/m² | - |
| 1777626578 | 18.89° C | 37% | 1027.3 hPa | 0 mm | - | 675 W/m² | - |
| 1777625978 | 18.33° C | 40% | 1027.3 hPa | 0 mm | - | 666 W/m² | - |
| 1777625376 | 17.78° C | 42% | 1027.3 hPa | 0 mm | - | 650 W/m² | - |
| 1777624778 | 17.78° C | 44% | 1027.3 hPa | 0 mm | - | 635 W/m² | - |
| 1777624179 | 16.67° C | 46% | 1027.2 hPa | 0 mm | - | 621 W/m² | - |
| 1777623577 | 16.67° C | 47% | 1027.2 hPa | 0 mm | - | 603 W/m² | - |
| 1777622979 | 16.67° C | 46% | 1027.1 hPa | 0 mm | - | 578 W/m² | - |
| 1777622376 | 16.11° C | 49% | 1027.2 hPa | 0 mm | - | 563 W/m² | - |
| 1777621774 | 15.56° C | 48% | 1027.1 hPa | 0 mm | - | 547 W/m² | - |
| 1777621176 | 15° C | 51% | 1027.1 hPa | 0 mm | - | 526 W/m² | - |
| 1777620581 | 15° C | 52% | 1027.2 hPa | 0 mm | - | 501 W/m² | - |
| 1777619979 | 14.44° C | 51% | 1027.1 hPa | 0 mm | - | 480 W/m² | - |
| 1777619376 | 13.89° C | 56% | 1027.1 hPa | 0 mm | - | 459 W/m² | - |
| 1777618778 | 13.33° C | 55% | 1027 hPa | 0 mm | - | 432 W/m² | - |
| 1777618179 | 12.78° C | 59% | 1027 hPa | 0 mm | - | 410 W/m² | - |
| 1777617573 | 11.67° C | 64% | 1026.9 hPa | 0 mm | - | 387 W/m² | - |
| 1777616975 | 11.11° C | 67% | 1026.8 hPa | 0 mm | - | 332 W/m² | - |
| 1777616375 | 10.56° C | 69% | 1027 hPa | 0 mm | - | 158 W/m² | - |
| 1777615776 | 9.44° C | 74% | 1026.9 hPa | 0 mm | - | 290 W/m² | - |
| 1777615174 | 8.89° C | 77% | 1026.8 hPa | 0 mm | - | 149 W/m² | - |
| 1777614573 | 8.33° C | 81% | 1026.8 hPa | 0 mm | - | 30 W/m² | - |
| 1777613979 | 7.78° C | 85% | 1026.8 hPa | 0 mm | - | 28 W/m² | - |
| 1777613376 | 6.67° C | 90% | 1026.7 hPa | 0 mm | - | 28 W/m² | - |
* Rain latest hour (hover to see other rain measurements)
** Current wind speed in m/s (hover to see current wind gust speed)